Location: Unspecified
(0.0000°N, 0.0000°E)
Time: 17:59:15
(UTC+00:00)

STARLINK 1056 - Pass Details

Date: 21 January 2020
Orbit: 548 x 551 km, 53.0° (Epoch: 17 January)

Event Time Altitude Azimuth Distance (km) Brightness Sun altitude
Rises 04:55:49 0° 206° (SSW) 2,713 7.1 -17.6°
Reaches altitude 10° 04:58:05 10° 202° (SSW) 1,817 6.3 -17.1°
Maximum altitude 05:02:08 54° 124° (SE) 668 4.4 -16.2°
Drops below altitude 10° 05:06:09 10° 46° (NE) 1,809 6.6 -15.2°
Sets 05:08:24 0° 42° (NE) 2,699 7.4 -14.7°
